• In India
  • List of Countries
  • For 7 days
  • Water Temperature
  • Satellite Maps
  • Weather Map
  • Weather Widgets
  • user-avatar
    Login

    Hourly Weather Shkoder

    Today, 23 October, Monday

    Time Temperature Precipitation Wind Pressure Humidity
    00:00 +16°C° 1.7 mm 3 mps 734 mmHg 88%
    01:00 +15°C° 1.7 mm 4 mps 734 mmHg 89%
    02:00 +15°C° 2 mm 4 mps 733 mmHg 89%
    03:00 +15°C° 2 mm 4 mps 733 mmHg 90%
    04:00 +15°C° 2 mm 4 mps 732 mmHg 91%
    05:00 +15°C° 0.6 mm 4 mps 732 mmHg 90%
    06:00 +16°C° 0.6 mm 3 mps 732 mmHg 90%
    07:00 +16°C° 0.6 mm 3 mps 732 mmHg 90%
    08:00 +16°C° 0.7 mm 3 mps 732 mmHg 85%
    09:00 +17°C° 0.7 mm 3 mps 732 mmHg 81%
    10:00 +17°C° 0.7 mm 4 mps 731 mmHg 77%
    11:00 +17°C° 1 mm 3 mps 731 mmHg 76%
    12:00 +17°C° 1 mm 3 mps 731 mmHg 74%
    13:00 +17°C° 1 mm 3 mps 731 mmHg 73%
    14:00 +16°C° 1.2 mm 3 mps 731 mmHg 75%
    15:00 +14°C° 1.2 mm 3 mps 731 mmHg 76%
    16:00 +13°C° 1.2 mm 3 mps 731 mmHg 78%
    17:00 +12°C° 0.4 mm 3 mps 731 mmHg 79%
    18:00 +12°C° 0.4 mm 3 mps 731 mmHg 79%
    19:00 +11°C° 0.4 mm 3 mps 732 mmHg 80%
    20:00 +11°C° 0.2 mm 3 mps 732 mmHg 79%
    21:00 +10°C° 0.2 mm 3 mps 732 mmHg 79%
    22:00 +10°C° 0.2 mm 4 mps 732 mmHg 78%
    23:00 +10°C° 0.1 mm 4 mps 732 mmHg 78%

    Tomorrow, 24 October, Tuesday

    Time Temperature Precipitation Wind Pressure Humidity
    00:00 +10°C° 0.1 mm 3 mps 732 mmHg 79%
    01:00 +10°C° 0.1 mm 3 mps 732 mmHg 79%
    02:00 +9°C° 0.2 mm 3 mps 732 mmHg 79%
    03:00 +9°C° 0.2 mm 3 mps 732 mmHg 80%
    04:00 +9°C° 0.2 mm 3 mps 732 mmHg 80%
    05:00 +9°C° 0.4 mm 3 mps 732 mmHg 81%
    06:00 +9°C° 0.4 mm 3 mps 732 mmHg 81%
    07:00 +9°C° 0.4 mm 3 mps 732 mmHg 82%
    08:00 +10°C° 0.4 mm 3 mps 732 mmHg 79%
    09:00 +11°C° 0.4 mm 3 mps 732 mmHg 76%
    10:00 +12°C° 0.4 mm 3 mps 733 mmHg 72%
    11:00 +12°C° 0.4 mm 4 mps 733 mmHg 71%
    12:00 +12°C° 0.4 mm 4 mps 733 mmHg 70%
    13:00 +12°C° 0.4 mm 4 mps 733 mmHg 69%
    14:00 +12°C° 0.2 mm 4 mps 733 mmHg 69%
    15:00 +12°C° 0.2 mm 4 mps 733 mmHg 69%
    16:00 +11°C° 0.2 mm 4 mps 734 mmHg 70%
    17:00 +11°C° 0.1 mm 4 mps 734 mmHg 72%
    18:00 +10°C° 0.1 mm 4 mps 734 mmHg 74%
    19:00 +10°C° 0.1 mm 4 mps 735 mmHg 76%
    20:00 +10°C° 0.1 mm 4 mps 735 mmHg 77%
    21:00 +10°C° 0.1 mm 4 mps 736 mmHg 77%
    22:00 +10°C° 0.1 mm 4 mps 736 mmHg 78%
    23:00 +10°C° 0.2 mm 4 mps 736 mmHg 79%

    Day after tomorrow, 25 October, Wednesday

    Time Temperature Precipitation Wind Pressure Humidity
    00:00 +10°C° 0.2 mm 4 mps 737 mmHg 80%
    01:00 +10°C° 0.2 mm 4 mps 737 mmHg 81%
    02:00 +10°C° 0.2 mm 4 mps 737 mmHg 82%
    03:00 +11°C° 0.2 mm 4 mps 737 mmHg 83%
    04:00 +11°C° 0.2 mm 4 mps 738 mmHg 84%
    05:00 +11°C° 0.2 mm 4 mps 738 mmHg 83%
    06:00 +11°C° 0.2 mm 4 mps 739 mmHg 83%
    07:00 +11°C° 0.2 mm 4 mps 739 mmHg 83%
    08:00 +13°C° 0 mm 5 mps 740 mmHg 78%
    09:00 +14°C° 0 mm 5 mps 741 mmHg 73%
    10:00 +15°C° 0 mm 5 mps 741 mmHg 68%
    11:00 +16°C° 0 mm 5 mps 741 mmHg 66%
    12:00 +16°C° 0 mm 5 mps 742 mmHg 65%
    13:00 +16°C° 0 mm 5 mps 742 mmHg 64%
    14:00 +16°C° 0 mm 5 mps 742 mmHg 67%
    15:00 +15°C° 0 mm 5 mps 743 mmHg 69%
    16:00 +14°C° 0 mm 5 mps 743 mmHg 72%
    17:00 +13°C° 0 mm 5 mps 744 mmHg 74%
    18:00 +13°C° 0 mm 5 mps 744 mmHg 76%
    19:00 +12°C° 0 mm 5 mps 745 mmHg 78%
    20:00 +12°C° 0 mm 5 mps 745 mmHg 78%
    21:00 +11°C° 0 mm 4 mps 746 mmHg 79%
    22:00 +11°C° 0 mm 4 mps 746 mmHg 80%
    23:00 +11°C° 0 mm 4 mps 747 mmHg 81%

    26 October, Thursday

    Time Temperature Precipitation Wind Pressure Humidity
    00:00 +11°C° 0 mm 4 mps 747 mmHg 81%
    01:00 +11°C° 0 mm 3 mps 747 mmHg 81%
    02:00 +10°C° 0 mm 3 mps 747 mmHg 82%
    03:00 +10°C° 0 mm 3 mps 747 mmHg 82%
    04:00 +10°C° 0 mm 3 mps 747 mmHg 82%
    05:00 +10°C° 0 mm 3 mps 747 mmHg 80%
    06:00 +11°C° 0 mm 3 mps 748 mmHg 79%
    07:00 +11°C° 0 mm 3 mps 748 mmHg 77%
    08:00 +14°C° 0 mm 2 mps 748 mmHg 71%
    09:00 +16°C° 0 mm 2 mps 748 mmHg 64%
    10:00 +19°C° 0 mm 2 mps 748 mmHg 57%
    11:00 +19°C° 0 mm 2 mps 747 mmHg 54%
    12:00 +20°C° 0 mm 2 mps 747 mmHg 52%
    13:00 +21°C° 0 mm 2 mps 747 mmHg 49%
    14:00 +20°C° 0 mm 2 mps 746 mmHg 54%
    15:00 +19°C° 0 mm 2 mps 746 mmHg 59%
    16:00 +19°C° 0 mm 2 mps 746 mmHg 64%
    17:00 +17°C° 0 mm 2 mps 746 mmHg 66%
    18:00 +16°C° 0 mm 2 mps 746 mmHg 68%
    19:00 +15°C° 0 mm 2 mps 747 mmHg 70%
    20:00 +15°C° 0 mm 2 mps 747 mmHg 68%
    21:00 +15°C° 0 mm 2 mps 747 mmHg 66%
    22:00 +15°C° 0 mm 2 mps 747 mmHg 65%
    23:00 +14°C° 0 mm 1 mps 746 mmHg 63%

    27 October, Friday

    Time Temperature Precipitation Wind Pressure Humidity
    00:00 +14°C° 0 mm 1 mps 746 mmHg 61%
    01:00 +14°C° 0 mm 1 mps 746 mmHg 60%
    02:00 +14°C° 0 mm 1 mps 745 mmHg 59%
    03:00 +14°C° 0 mm 1 mps 745 mmHg 59%
    04:00 +14°C° 0 mm 1 mps 745 mmHg 58%
    05:00 +14°C° 0 mm 1 mps 744 mmHg 59%
    06:00 +14°C° 0 mm 1 mps 744 mmHg 60%
    07:00 +14°C° 0 mm 1 mps 744 mmHg 60%
    08:00 +16°C° 0 mm 1 mps 744 mmHg 57%
    09:00 +19°C° 0 mm 1 mps 744 mmHg 55%
    10:00 +21°C° 0 mm 1 mps 743 mmHg 52%
    11:00 +20°C° 0 mm 2 mps 742 mmHg 52%
    12:00 +21°C° 0 mm 2 mps 742 mmHg 53%
    13:00 +21°C° 0 mm 2 mps 741 mmHg 53%
    14:00 +20°C° 0 mm 2 mps 740 mmHg 59%
    15:00 +19°C° 0 mm 2 mps 740 mmHg 65%
    16:00 +18°C° 0 mm 2 mps 739 mmHg 71%
    17:00 +17°C° 0 mm 2 mps 739 mmHg 76%
    18:00 +15°C° 0 mm 1 mps 739 mmHg 81%
    19:00 +14°C° 0 mm 1 mps 739 mmHg 86%
    20:00 +14°C° 0 mm 1 mps 738 mmHg 86%
    21:00 +14°C° 0 mm 2 mps 738 mmHg 85%
    22:00 +13°C° 0 mm 2 mps 738 mmHg 85%
    23:00 +13°C° 0 mm 2 mps 738 mmHg 84%

    28 October, Saturday

    Time Temperature Precipitation Wind Pressure Humidity
    00:00 +13°C° 0 mm 2 mps 737 mmHg 83%
    01:00 +13°C° 0 mm 2 mps 737 mmHg 82%
    02:00 +13°C° 0 mm 2 mps 736 mmHg 81%
    03:00 +13°C° 0 mm 2 mps 736 mmHg 79%
    04:00 +12°C° 0 mm 2 mps 735 mmHg 78%
    05:00 +13°C° 0 mm 2 mps 735 mmHg 76%
    06:00 +13°C° 0 mm 2 mps 735 mmHg 74%
    07:00 +14°C° 0 mm 2 mps 735 mmHg 73%
    08:00 +14°C° 0.3 mm 2 mps 735 mmHg 70%
    09:00 +15°C° 0.3 mm 2 mps 735 mmHg 68%
    10:00 +16°C° 0.3 mm 1 mps 735 mmHg 66%
    11:00 +16°C° 1 mm 2 mps 734 mmHg 70%
    12:00 +15°C° 1 mm 2 mps 734 mmHg 75%
    13:00 +15°C° 1 mm 2 mps 733 mmHg 79%
    14:00 +13°C° 1.1 mm 3 mps 733 mmHg 81%
    15:00 +13°C° 1.1 mm 3 mps 733 mmHg 83%
    16:00 +12°C° 1.1 mm 3 mps 732 mmHg 86%
    17:00 +12°C° 0.4 mm 3 mps 733 mmHg 86%
    18:00 +12°C° 0.4 mm 3 mps 733 mmHg 87%
    19:00 +11°C° 0.4 mm 3 mps 733 mmHg 87%
    20:00 +11°C° 1.6 mm 3 mps 732 mmHg 87%
    21:00 +11°C° 1.6 mm 3 mps 732 mmHg 88%
    22:00 +10°C° 1.6 mm 3 mps 732 mmHg 88%
    23:00 +10°C° 2.3 mm 4 mps 732 mmHg 87%

    29 October, Sunday

    Time Temperature Precipitation Wind Pressure Humidity
    00:00 +8°C° 2.3 mm 4 mps 732 mmHg 85%
    01:00 +8°C° 2.3 mm 4 mps 732 mmHg 84%
    02:00 +8°C° 0.3 mm 4 mps 732 mmHg 84%
    03:00 +8°C° 0.3 mm 4 mps 732 mmHg 84%
    04:00 +7°C° 0.3 mm 4 mps 732 mmHg 83%
    05:00 +7°C° 0.1 mm 4 mps 732 mmHg 82%
    06:00 +7°C° 0.1 mm 4 mps 733 mmHg 82%
    07:00 +7°C° 0.1 mm 4 mps 733 mmHg 81%
    08:00 +8°C° 0.1 mm 4 mps 733 mmHg 76%
    09:00 +10°C° 0.1 mm 4 mps 734 mmHg 71%
    10:00 +10°C° 0.1 mm 5 mps 734 mmHg 66%
    11:00 +12°C° 0.1 mm 5 mps 734 mmHg 64%
    12:00 +12°C° 0.1 mm 5 mps 734 mmHg 62%
    13:00 +13°C° 0.1 mm 5 mps 734 mmHg 60%
    14:00 +12°C° 0.1 mm 4 mps 735 mmHg 62%
    15:00 +11°C° 0.1 mm 4 mps 735 mmHg 64%
    16:00 +11°C° 0.1 mm 4 mps 735 mmHg 66%
    17:00 +10°C° 0 mm 4 mps 736 mmHg 69%
    18:00 +8°C° 0 mm 4 mps 736 mmHg 72%
    19:00 +7°C° 0 mm 4 mps 737 mmHg 75%
    20:00 +7°C° 0 mm 4 mps 737 mmHg 76%
    21:00 +7°C° 0 mm 3 mps 738 mmHg 77%
    22:00 +7°C° 0 mm 3 mps 738 mmHg 78%
    23:00 +7°C° 0 mm 3 mps 738 mmHg 79%
    Show more